Regional Weather Roundup
Issued by NWS Albany, NY

Home | Current Version | Previous Version | Text Only | Print | Product List | Glossary On
Versions: 1 2 3 4 5 6 7 8 9 10 11 12 13 14 15 16 17 18 19 20 21 22 23 24 25 26 27 28 29 30 31 32 33 34 35 36 37 38 39 40 41 42 43 44 45 46 47 48 49 50
000
ASUS41 KALY 011410
RWRALY

NEW YORK STATE HOURLY WEATHER ROUNDUP
NATIONAL WEATHER SERVICE ALBANY NY
900 AM EST SUN FEB 01 2015

NOTE: "FAIR" INDICATES FEW OR NO CLOUDS BELOW 12,000 FEET WITH NO
SIGNIFICANT WEATHER AND/OR NO OBSTRUCTIONS TO VISIBILITY.

NYZ032-033-038>043-046>054-057>066-NYZ062>081-011500-
EAST


CITY           SKY/WX    TMP DP  RH WIND       PRES   REMARKS
ALBANY         MOSUNNY   16   8  71 E5        30.18R WCI   9
GLENS FALLS    MOSUNNY    4  -2  76 CALM      30.20R
POUGHKEEPSIE   CLOUDY    25  13  60 SW6       30.19R WCI  18
NEWBURGH       CLOUDY    23  16  74 W12       30.18R WCI  12
MONTGOMERY     CLOUDY    20  12  71 SW6       30.17S WCI  12
WHITE PLAINS   SUNNY     23  11  60 W6        30.18R WCI  16
ISLIP          MOSUNNY   23  14  68 W8        30.20R WCI  14
NEW YORK CITY  PTSUNNY   29  16  58 W8        30.22F WCI  21
CENTRAL PARK   CLOUDY    28  14  55 CALM      30.24R
$$

NYZ005>009-017-018-044>046-055-056-011500-
CENTRAL


CITY           SKY/WX    TMP DP  RH WIND       PRES   REMARKS
FULTON         SUNNY     13   6  74 N13       30.25R WCI  -2
SYRACUSE       PTSUNNY   14  10  84 NW12      30.23R WCI   0
ROME           SUNNY     12   6  77 NW7       30.23R WCI   1
ELMIRA         CLOUDY    23  18  81 CALM      30.16S
BINGHAMTON     LGT SNOW  21  18  88 W6        30.10R VSB 1   WCI  13
MONTICELLO     CLOUDY    19  16  86 W5        30.12R WCI  13
$$

NYZ026>034-041>043-011500-
NORTH


CITY           SKY/WX    TMP DP  RH WIND       PRES   REMARKS
WATERTOWN      SUNNY      8  -1  66 NE16      30.31R WCI -10
FORT DRUM      NOT AVBL
MASSENA        MOSUNNY    1  -8  66 NW10      30.35R WCI -15
SARANAC LAKE   CLOUDY     2  -4  76 VRB3      30.11R
PLATTSBURGH    MOSUNNY    9  -3  58 N12       30.26R WCI  -6
$$

NYZ001>004-010>016-019>021-011500-
WEST


CITY           SKY/WX    TMP DP  RH WIND       PRES   REMARKS
NIAGARA FALLS  FLURRIES  22  17  81 NE14      30.21S WCI   9
BUFFALO        CLOUDY    24  17  74 NE15      30.20R WCI  11
DUNKIRK        LGT SNOW  25  21  85 NE10      30.19R FOG     WCI  15
JAMESTOWN      CLOUDY    23  19  86 CALM      30.12R
WELLSVILLE     CLOUDY    23  21  92 CALM      30.10S
ROCHESTER      LGT SNOW  21  16  81 NE14      30.23S WCI   8
PENN YAN       LGT SNOW  21  17  84 VRB6      30.18S FOG     WCI  13
$$

             KEY
       WCI = WIND CHILL INDEX
       VSB = VISIBILITY
       HX  = HEAT INDEX
$$


USA.gov is the U.S. government's official web portal to all federal, state and local government web resources and services.